CZ-3B DEB, 39334

Orbit data source: Space-Track

CZ-3B DEB, 39334 is space debris in HEO originally from a launch on Sat, 04 Sep 2010 UTC launched from the Xichang Space Center, China (XSC). Debris objects in space refer to the collection of defunct objects orbiting the Earth. Examples of debris include non-operational satellites, rocket bodies, and fragments generated from explosions, collisions, or faulty payload assembly.

Loading next visibility...
CZ-3B DEB details
Identifier
39334, 2010-042F
Orbit
HEO
Last TLE update2 days ago
Origin
Flag of CNCASC (CN / PRC)
ManufacturerCALT
MissionSpacecraft
Bus & MotorUnknown
MassUnknown
Launch date (UTC)
2010-09-04 (14 years ago)
Launch vehicleUnknown
Launch site
Xichang Space Center, China (XSC)
Object type
Payload
Rocket body
Debris
Shape & HBRUnknown
Radar Cross SectionMedium (>0.1 m² and <1 m²)

Expand to show TLE details & history

TLE from 2 days ago
0 CZ-3B DEB
1 39334U 10042F   24359.40867940 -.00000042  00000-0  00000-0 0  9997
2 39334  26.8313   9.6885 7332812 187.4259 356.8409  1.86380795 87754
Epoch: 2024-12-24T09:48Z
Definitive object data (Epoch: 2024-12-24T09:48:29.9Z)
Latitude10.03661°
Longitude-71.2258°
Altitude1,538.968 km
Speed9.295 km/s
True Right ascension11h 17m 15s
True Declination9° 59' 01"
Sunlit
Object was in daylight at TLE epoch
Visualization TLE readout
Latitude-17.35664°
Longitude90.52545°
Altitude18,225.154 km
Speed4.256 km/s
Apparent Right ascension22h 42m 22s
Apparent Declination-23° 33' 27"
Sunlit
Object is in daylight
Visualization observer readout
Local Sidereal Time14:12:24
Azimuth85.953° E
Elevation-43.186°
Doppler factor1
Orbital elements
Apogee altitude41,971.292 km
Perigee altitude1,061.915 km
Semi-major axis27,894.74 km
Eccentricity0.7332812
Inclination26.8313°
RAAN9.6885°
Arg. of periapsis187.4259°
True anomaly330.90388°
Mean anomaly356.8409°
Eccentric anomaly348.37455°
Mean motion0.46586 °/min
BSTARUnknown
Orbital period772.76 mins
Loading maneuver chart data...
Loading historical data...
Loading historical data...
Loading historical data...
Loading historical data...
Loading historical data...
Loading historical data...
Loading historical data...

CZ-3B DEB Visibility forecast

Observer location: undefined°, undefined

Span
Click to sort rows by Start time (UTC) header in descending order
Start Az.
Max El. time (UTC)
Max El. Az.
Max El.
End time (UTC)
End Az.
238 mins2024-12-26 21:27:29.978Z94.198° ESE2024-12-27 00:14:29.978Z96.163° ESE24.146°2024-12-27 01:25:29.978Z80.579° E
|